ORCASAT (55126 NORAD) Tracking and Keplerian Element Data

This shows tracking and keplerian element data for the satellite.

Feedback or suggestion? Click here.




ElementValue
Catalog55126
NameORCASAT
Epoch Orbit1354
Epoch Day84.92131132
Epoch Year2023
RAAN17.0067
Inclination51.6394
Eccentricity0.0006603
Argument of Perigee151.5919
Mean Anonmoly208.5437
Mean Motion15.63882432
Decay Rate0.0010598
L11 55126U 98067UT 23084.92131132 .00105980 00000+0 10961-2 0 9999
L22 55126 51.6394 17.0067 0006603 151.5919 208.5437 15.63882432 13540



Live tracking and technical data element details for ORCASAT (NORAD 55126). ORCASAT can be tracked NOW for your location showing map with azimuth and elevation plus other details from your city location.







IsCatalogInMostPopularTable: catalog: 55126, numindb: 19
Update: records affected: 1



GetName: 55126 ORCASAT

Hit Count: updated at: Mon, 27 Mar 2023 08:21:38 GMT